Regional Weather Roundup
Issued by NWS

Home | Current Version | Previous Version | Text Only | Print | Product List | Glossary On
Versions: 1 2 3 4 5 6 7 8 9 10 11 12 13 14 15 16 17 18 19 20 21 22 23 24 25 26 27 28 29 30 31 32 33 34 35 36 37 38 39 40 41 42 43 44 45 46 47 48 49 50
000
ASUS43 KTOP 022208
RWRKS

WEATHER ROUNDUP FOR KANSAS
NATIONAL WEATHER SERVICE GOODLAND KS
500 PM CDT WED SEP 02 2015

NOTE:  "FAIR" INDICATES FEW OR NO CLOUDS BELOW 12,000 FEET WITH NO
SIGNIFICANT WEATHER AND/OR OBSTRUCTIONS TO VISIBILITY.

KSZ001>006-013>018-027>032-041>047-022300-
NORTHWEST KANSAS

CITY           SKY/WX    TMP DP  RH WIND       PRES   REMARKS
GOODLAND       SUNNY     97  44  16 CALM      29.89F
HAYS           SUNNY    102  57  22 S20G30    29.80F HX 101
HILL CITY      SUNNY    101  55  21 S9        29.81F HX  99
RUSSELL        SUNNY    100  57  23 S24G32    29.80F HX  99
$$

KSZ061>065-074>080-084>089-022300-
SOUTHWEST KANSAS

CITY           SKY/WX    TMP DP  RH WIND       PRES   REMARKS
DODGE CITY     SUNNY     99  50  19 S25G31    29.87F HX  96
ELKHART          N/A     91  59  34 S13         N/A
GARDEN CITY    SUNNY     98  55  23 SW14      29.86F HX  96
GREAT BEND     SUNNY    100  57  23 S26G33    29.82F HX  99
LIBERAL        SUNNY     97  54  23 S24G30    29.91S
PRATT          SUNNY     95  52  23 MISG      29.89F
$$

KSZ066>073-081>083-090>101-022300-
SOUTHEAST KANSAS

CITY           SKY/WX    TMP DP  RH WIND       PRES   REMARKS
CHANUTE        SUNNY     87  68  52 S15G24    29.96F
COFFEYVILLE    SUNNY     87  70  56 S15       29.95F
HUTCHINSON     SUNNY     96  61  31 S23G29    29.88F HX  96
MEDICINE LODGE   N/A     97  60  29 S16G30    29.87F HX  97
NEWTON         SUNNY     93  63  36 S20G28    29.93F
PARSONS        SUNNY     87  71  58 S10G17    29.97F
WICHITA INTL   MOSUNNY   94  63  35 S17G26    29.89F HX  95
WICHITA JABRA  SUNNY     90  65  43 S18G25    29.90F
WINFIELD       SUNNY     93  65  39 S16       29.93F HX  95
$$

KSZ007>012-019>026-033>040-048>060-102>105-022300-
NORTHEAST KANSAS

CITY           SKY/WX    TMP DP  RH WIND       PRES   REMARKS
CONCORDIA      SUNNY     94  63  35 S17G28    29.84F HX  95
EMPORIA        SUNNY     89  65  44 S18G25    29.91F
LAWRENCE       SUNNY     90  68  48 S16G24    29.91F
MANHATTAN      SUNNY     95  64  35 S15G28    29.86F HX  97
MARYSVILLE     SUNNY     91  68  46 S15G21    29.86F HX  95
OLATHE IND     SUNNY     87  69  54 S17G24    29.95F
OLATHE EXE     SUNNY     85  69  58 S14G22    29.94F
SALINA         SUNNY     97  61  30 S22G35    29.84F HX  97
TOPEKA BILLARD SUNNY     90  66  45 S14G22    29.90F
TOPEKA FORBES  SUNNY     90  67  46 S13G24    29.91F
$$



USA.gov is the U.S. government's official web portal to all federal, state and local government web resources and services.